Wetterdaten: Freitag, 18.03.2016
Datum Zeit Temperatur Luftfeuchte Luftdruck Regen Wind Richtung Richtung Sonnenschein ET UV Solar Taupunkt Windchill Windben
18.03.2016 00:00 -0,2 C 84 % 1024,3 hPa 0,0 l/m 0,0 km/h (0 Bft) O-NO 69 0 min 0,000 mm 0,0 UV-I 0 W/m -2,6 C -0,2 C 0,0 km/h (0 Bft)
18.03.2016 00:05 -0,3 C 85 % 1024,2 hPa 0,0 l/m 0,0 km/h (0 Bft) O-NO 69 0 min 0,000 mm 0,0 UV-I 0 W/m -2,5 C -0,3 C 0,0 km/h (0 Bft)
18.03.2016 00:10 -0,3 C 86 % 1024,2 hPa 0,0 l/m 0,0 km/h (0 Bft) O-NO 69 0 min 0,000 mm 0,0 UV-I 0 W/m -2,3 C -0,3 C 0,0 km/h (0 Bft)
18.03.2016 00:15 -0,2 C 87 % 1024,2 hPa 0,0 l/m 0,0 km/h (0 Bft) O-NO 69 0 min 0,000 mm 0,0 UV-I 0 W/m -2,1 C -0,2 C 0,0 km/h (0 Bft)
18.03.2016 00:20 -0,3 C 87 % 1024,2 hPa 0,0 l/m 0,0 km/h (0 Bft) O-NO 69 0 min 0,000 mm 0,0 UV-I 0 W/m -2,2 C -0,3 C 0,0 km/h (0 Bft)
18.03.2016 00:25 -0,2 C 88 % 1024,1 hPa 0,0 l/m 0,0 km/h (0 Bft) O-NO 69 0 min 0,000 mm 0,0 UV-I 0 W/m -1,9 C -0,2 C 0,0 km/h (0 Bft)
18.03.2016 00:30 -0,2 C 88 % 1024,1 hPa 0,0 l/m 0,0 km/h (0 Bft) NW 319 0 min 0,000 mm 0,0 UV-I 0 W/m -1,9 C -0,2 C 0,0 km/h (0 Bft)
18.03.2016 00:35 -0,2 C 87 % 1024,0 hPa 0,0 l/m 0,0 km/h (0 Bft) NW 319 0 min 0,000 mm 0,0 UV-I 0 W/m -2,1 C -0,2 C 0,0 km/h (0 Bft)
18.03.2016 00:40 -0,3 C 87 % 1023,9 hPa 0,0 l/m 0,0 km/h (0 Bft) NW 319 0 min 0,000 mm 0,0 UV-I 0 W/m -2,2 C -0,3 C 0,0 km/h (0 Bft)
18.03.2016 00:45 -0,3 C 87 % 1023,9 hPa 0,0 l/m 0,0 km/h (0 Bft) NW 319 0 min 0,000 mm 0,0 UV-I 0 W/m -2,2 C -0,3 C 0,0 km/h (0 Bft)
18.03.2016 00:50 -0,3 C 88 % 1023,9 hPa 0,0 l/m 0,0 km/h (0 Bft) NW 319 0 min 0,000 mm 0,0 UV-I 0 W/m -2,0 C -0,3 C 0,0 km/h (0 Bft)
18.03.2016 00:55 -0,4 C 87 % 1023,9 hPa 0,0 l/m 0,0 km/h (0 Bft) NW 319 0 min 0,000 mm 0,0 UV-I 0 W/m -2,3 C -0,4 C 0,0 km/h (0 Bft)
18.03.2016 01:00 -0,4 C 87 % 1023,9 hPa 0,0 l/m 0,0 km/h (0 Bft) NW 319 0 min 0,000 mm 0,0 UV-I 0 W/m -2,3 C -0,4 C 0,0 km/h (0 Bft)
18.03.2016 01:05 -0,5 C 87 % 1023,9 hPa 0,0 l/m 0,0 km/h (0 Bft) NW 319 0 min 0,000 mm 0,0 UV-I 0 W/m -2,4 C -0,5 C 0,0 km/h (0 Bft)
18.03.2016 01:10 -0,6 C 88 % 1023,9 hPa 0,0 l/m 0,0 km/h (0 Bft) NW 319 0 min 0,000 mm 0,0 UV-I 0 W/m -2,3 C -0,6 C 0,0 km/h (0 Bft)
18.03.2016 01:15 -0,6 C 87 % 1023,9 hPa 0,0 l/m 0,0 km/h (0 Bft) NW 319 0 min 0,000 mm 0,0 UV-I 0 W/m -2,5 C -0,6 C 0,0 km/h (0 Bft)
18.03.2016 01:20 -0,6 C 89 % 1023,8 hPa 0,0 l/m 0,0 km/h (0 Bft) NW 319 0 min 0,000 mm 0,0 UV-I 0 W/m -2,2 C -0,6 C 0,0 km/h (0 Bft)
18.03.2016 01:25 -0,7 C 88 % 1023,8 hPa 0,0 l/m 0,0 km/h (0 Bft) NW 319 0 min 0,000 mm 0,0 UV-I 0 W/m -2,4 C -0,7 C 0,0 km/h (0 Bft)
18.03.2016 01:30 -0,8 C 87 % 1023,8 hPa 0,0 l/m 0,0 km/h (0 Bft) NW 319 0 min 0,000 mm 0,0 UV-I 0 W/m -2,7 C -0,8 C 0,0 km/h (0 Bft)
18.03.2016 01:35 -0,8 C 88 % 1023,6 hPa 0,0 l/m 0,0 km/h (0 Bft) NW 319 0 min 0,000 mm 0,0 UV-I 0 W/m -2,5 C -0,8 C 0,0 km/h (0 Bft)
18.03.2016 01:40 -0,9 C 88 % 1023,7 hPa 0,0 l/m 0,0 km/h (0 Bft) NW 319 0 min 0,000 mm 0,0 UV-I 0 W/m -2,6 C -0,9 C 0,0 km/h (0 Bft)
18.03.2016 01:45 -1,0 C 88 % 1023,6 hPa 0,0 l/m 0,0 km/h (0 Bft) NW 319 0 min 0,000 mm 0,0 UV-I 0 W/m -2,7 C -1,0 C 0,0 km/h (0 Bft)
18.03.2016 01:50 -1,0 C 88 % 1023,6 hPa 0,0 l/m 0,0 km/h (0 Bft) NW 319 0 min 0,000 mm 0,0 UV-I 0 W/m -2,7 C -1,0 C 0,0 km/h (0 Bft)
18.03.2016 01:55 -1,0 C 89 % 1023,5 hPa 0,0 l/m 0,0 km/h (0 Bft) NW 319 0 min 0,000 mm 0,0 UV-I 0 W/m -2,6 C -1,0 C 0,0 km/h (0 Bft)
18.03.2016 02:00 -1,1 C 89 % 1023,5 hPa 0,0 l/m 0,0 km/h (0 Bft) NW 319 0 min 0,000 mm 0,0 UV-I 0 W/m -2,7 C -1,1 C 0,0 km/h (0 Bft)
18.03.2016 02:05 -1,1 C 89 % 1023,5 hPa 0,0 l/m 0,0 km/h (0 Bft) W-SW 251 0 min 0,000 mm 0,0 UV-I 0 W/m -2,7 C -1,1 C 0,0 km/h (0 Bft)
18.03.2016 02:10 -0,9 C 90 % 1023,4 hPa 0,0 l/m 0,0 km/h (0 Bft) W 269 0 min 0,000 mm 0,0 UV-I 0 W/m -2,3 C -0,9 C 0,0 km/h (0 Bft)
18.03.2016 02:15 -0,9 C 89 % 1023,4 hPa 0,0 l/m 0,0 km/h (0 Bft) W 269 0 min 0,000 mm 0,0 UV-I 0 W/m -2,5 C -0,9 C 0,0 km/h (0 Bft)
18.03.2016 02:20 -1,0 C 89 % 1023,5 hPa 0,0 l/m 0,0 km/h (0 Bft) W 269 0 min 0,000 mm 0,0 UV-I 0 W/m -2,6 C -1,0 C 0,0 km/h (0 Bft)
18.03.2016 02:25 -1,0 C 90 % 1023,4 hPa 0,0 l/m 0,0 km/h (0 Bft) W 269 0 min 0,000 mm 0,0 UV-I 0 W/m -2,4 C -1,0 C 0,0 km/h (0 Bft)
18.03.2016 02:30 -0,9 C 90 % 1023,4 hPa 0,0 l/m 0,0 km/h (0 Bft) W 269 0 min 0,000 mm 0,0 UV-I 0 W/m -2,3 C -0,9 C 0,0 km/h (0 Bft)
18.03.2016 02:35 -1,0 C 90 % 1023,3 hPa 0,0 l/m 0,0 km/h (0 Bft) W 269 0 min 0,000 mm 0,0 UV-I 0 W/m -2,4 C -1,0 C 0,0 km/h (0 Bft)
18.03.2016 02:40 -1,1 C 90 % 1023,2 hPa 0,0 l/m 0,0 km/h (0 Bft) W 269 0 min 0,000 mm 0,0 UV-I 0 W/m -2,5 C -1,1 C 0,0 km/h (0 Bft)
18.03.2016 02:45 -1,2 C 90 % 1023,2 hPa 0,0 l/m 0,0 km/h (0 Bft) W 269 0 min 0,000 mm 0,0 UV-I 0 W/m -2,6 C -1,2 C 0,0 km/h (0 Bft)
18.03.2016 02:50 -1,3 C 89 % 1023,1 hPa 0,0 l/m 0,0 km/h (0 Bft) W 269 0 min 0,000 mm 0,0 UV-I 0 W/m -2,9 C -1,3 C 0,0 km/h (0 Bft)
18.03.2016 02:55 -1,3 C 90 % 1023,1 hPa 0,0 l/m 0,0 km/h (0 Bft) W 269 0 min 0,000 mm 0,0 UV-I 0 W/m -2,7 C -1,3 C 0,0 km/h (0 Bft)
18.03.2016 03:00 -1,4 C 90 % 1023,1 hPa 0,0 l/m 0,0 km/h (0 Bft) W 269 0 min 0,000 mm 0,0 UV-I 0 W/m -2,8 C -1,4 C 0,0 km/h (0 Bft)
18.03.2016 03:05 -1,5 C 89 % 1023,1 hPa 0,0 l/m 0,0 km/h (0 Bft) W 269 0 min 0,000 mm 0,0 UV-I 0 W/m -3,1 C -1,5 C 0,0 km/h (0 Bft)
18.03.2016 03:10 -1,4 C 90 % 1023,0 hPa 0,0 l/m 0,0 km/h (0 Bft) W 269 0 min 0,000 mm 0,0 UV-I 0 W/m -2,8 C -1,4 C 0,0 km/h (0 Bft)
18.03.2016 03:15 -1,5 C 90 % 1023,0 hPa 0,0 l/m 0,0 km/h (0 Bft) W 269 0 min 0,000 mm 0,0 UV-I 0 W/m -2,9 C -1,5 C 0,0 km/h (0 Bft)
18.03.2016 03:20 -1,6 C 89 % 1022,9 hPa 0,0 l/m 0,0 km/h (0 Bft) W 269 0 min 0,000 mm 0,0 UV-I 0 W/m -3,2 C -1,6 C 0,0 km/h (0 Bft)
18.03.2016 03:25 -1,7 C 90 % 1022,8 hPa 0,0 l/m 0,0 km/h (0 Bft) W 269 0 min 0,000 mm 0,0 UV-I 0 W/m -3,1 C -1,7 C 0,0 km/h (0 Bft)
18.03.2016 03:30 -1,7 C 91 % 1022,8 hPa 0,0 l/m 0,0 km/h (0 Bft) W 269 0 min 0,000 mm 0,0 UV-I 0 W/m -3,0 C -1,7 C 0,0 km/h (0 Bft)
18.03.2016 03:35 -1,7 C 91 % 1022,8 hPa 0,0 l/m 0,0 km/h (0 Bft) W 269 0 min 0,000 mm 0,0 UV-I 0 W/m -3,0 C -1,7 C 0,0 km/h (0 Bft)
18.03.2016 03:40 -1,6 C 91 % 1022,7 hPa 0,0 l/m 0,0 km/h (0 Bft) W 269 0 min 0,000 mm 0,0 UV-I 0 W/m -2,9 C -1,6 C 0,0 km/h (0 Bft)
18.03.2016 03:45 -1,6 C 91 % 1022,6 hPa 0,0 l/m 0,0 km/h (0 Bft) W 269 0 min 0,000 mm 0,0 UV-I 0 W/m -2,9 C -1,6 C 0,0 km/h (0 Bft)
18.03.2016 03:50 -1,7 C 91 % 1022,6 hPa 0,0 l/m 0,0 km/h (0 Bft) W 269 0 min 0,000 mm 0,0 UV-I 0 W/m -3,0 C -1,7 C 0,0 km/h (0 Bft)
18.03.2016 03:55 -1,7 C 91 % 1022,5 hPa 0,0 l/m 0,0 km/h (0 Bft) W 269 0 min 0,000 mm 0,0 UV-I 0 W/m -3,0 C -1,7 C 0,0 km/h (0 Bft)
18.03.2016 04:00 -1,8 C 91 % 1022,5 hPa 0,0 l/m 0,0 km/h (0 Bft) W 269 0 min 0,000 mm 0,0 UV-I 0 W/m -3,1 C -1,8 C 0,0 km/h (0 Bft)
18.03.2016 04:05 -1,9 C 90 % 1022,4 hPa 0,0 l/m 0,0 km/h (0 Bft) W 269 0 min 0,000 mm 0,0 UV-I 0 W/m -3,3 C -1,9 C 0,0 km/h (0 Bft)
18.03.2016 04:10 -1,9 C 91 % 1022,4 hPa 0,0 l/m 0,0 km/h (0 Bft) W 269 0 min 0,000 mm 0,0 UV-I 0 W/m -3,2 C -1,9 C 0,0 km/h (0 Bft)
18.03.2016 04:15 -1,9 C 91 % 1022,4 hPa 0,0 l/m 0,0 km/h (0 Bft) W 269 0 min 0,000 mm 0,0 UV-I 0 W/m -3,2 C -1,9 C 0,0 km/h (0 Bft)
18.03.2016 04:20 -2,0 C 91 % 1022,3 hPa 0,0 l/m 0,0 km/h (0 Bft) W 269 0 min 0,000 mm 0,0 UV-I 0 W/m -3,3 C -2,0 C 0,0 km/h (0 Bft)
18.03.2016 04:25 -1,9 C 91 % 1022,3 hPa 0,0 l/m 0,0 km/h (0 Bft) W 269 0 min 0,000 mm 0,0 UV-I 0 W/m -3,2 C -1,9 C 0,0 km/h (0 Bft)
18.03.2016 04:30 -1,9 C 91 % 1022,3 hPa 0,0 l/m 0,0 km/h (0 Bft) W 269 0 min 0,000 mm 0,0 UV-I 0 W/m -3,2 C -1,9 C 0,0 km/h (0 Bft)
18.03.2016 04:35 -2,1 C 91 % 1022,3 hPa 0,0 l/m 0,0 km/h (0 Bft) W 268 0 min 0,000 mm 0,0 UV-I 0 W/m -3,4 C -2,1 C 0,0 km/h (0 Bft)
18.03.2016 04:40 -2,1 C 91 % 1022,2 hPa 0,0 l/m 0,0 km/h (0 Bft) W 269 0 min 0,000 mm 0,0 UV-I 0 W/m -3,4 C -2,1 C 0,0 km/h (0 Bft)
18.03.2016 04:45 -2,2 C 91 % 1022,2 hPa 0,0 l/m 0,0 km/h (0 Bft) W 269 0 min 0,000 mm 0,0 UV-I 0 W/m -3,5 C -2,2 C 0,0 km/h (0 Bft)
18.03.2016 04:50 -2,3 C 91 % 1022,1 hPa 0,0 l/m 0,0 km/h (0 Bft) W 269 0 min 0,000 mm 0,0 UV-I 0 W/m -3,6 C -2,3 C 0,0 km/h (0 Bft)
18.03.2016 04:55 -2,3 C 91 % 1022,1 hPa 0,0 l/m 0,0 km/h (0 Bft) W 269 0 min 0,000 mm 0,0 UV-I 0 W/m -3,6 C -2,3 C 0,0 km/h (0 Bft)
18.03.2016 05:00 -2,4 C 91 % 1022,1 hPa 0,0 l/m 0,0 km/h (0 Bft) W 269 0 min 0,000 mm 0,0 UV-I 0 W/m -3,7 C -2,4 C 0,0 km/h (0 Bft)
18.03.2016 05:05 -2,3 C 92 % 1022,1 hPa 0,0 l/m 0,0 km/h (0 Bft) W 269 0 min 0,000 mm 0,0 UV-I 0 W/m -3,4 C -2,3 C 0,0 km/h (0 Bft)
18.03.2016 05:10 -2,4 C 91 % 1022,0 hPa 0,0 l/m 0,0 km/h (0 Bft) W 268 0 min 0,000 mm 0,0 UV-I 0 W/m -3,7 C -2,4 C 0,0 km/h (0 Bft)
18.03.2016 05:15 -2,5 C 91 % 1022,0 hPa 0,0 l/m 0,0 km/h (0 Bft) W 269 0 min 0,000 mm 0,0 UV-I 0 W/m -3,8 C -2,5 C 0,0 km/h (0 Bft)
18.03.2016 05:20 -2,4 C 92 % 1021,9 hPa 0,0 l/m 0,0 km/h (0 Bft) W 269 0 min 0,000 mm 0,0 UV-I 0 W/m -3,5 C -2,4 C 0,0 km/h (0 Bft)
18.03.2016 05:25 -2,3 C 92 % 1021,9 hPa 0,0 l/m 0,0 km/h (0 Bft) W 269 0 min 0,000 mm 0,0 UV-I 0 W/m -3,4 C -2,3 C 0,0 km/h (0 Bft)
18.03.2016 05:30 -2,3 C 92 % 1021,9 hPa 0,0 l/m 0,0 km/h (0 Bft) W 269 0 min 0,000 mm 0,0 UV-I 0 W/m -3,4 C -2,3 C 0,0 km/h (0 Bft)
18.03.2016 05:35 -2,3 C 92 % 1021,8 hPa 0,0 l/m 0,0 km/h (0 Bft) W 268 0 min 0,000 mm 0,0 UV-I 0 W/m -3,4 C -2,3 C 0,0 km/h (0 Bft)
18.03.2016 05:40 -2,3 C 92 % 1021,8 hPa 0,0 l/m 0,0 km/h (0 Bft) W 268 0 min 0,000 mm 0,0 UV-I 0 W/m -3,4 C -2,3 C 0,0 km/h (0 Bft)
18.03.2016 05:45 -2,3 C 92 % 1021,8 hPa 0,0 l/m 0,0 km/h (0 Bft) W 269 0 min 0,000 mm 0,0 UV-I 0 W/m -3,4 C -2,3 C 0,0 km/h (0 Bft)
18.03.2016 05:50 -2,3 C 92 % 1021,8 hPa 0,0 l/m 0,0 km/h (0 Bft) W 269 0 min 0,000 mm 0,0 UV-I 0 W/m -3,4 C -2,3 C 0,0 km/h (0 Bft)
18.03.2016 05:55 -2,4 C 91 % 1021,7 hPa 0,0 l/m 0,0 km/h (0 Bft) W 268 0 min 0,000 mm 0,0 UV-I 0 W/m -3,7 C -2,4 C 0,0 km/h (0 Bft)
18.03.2016 06:00 -2,6 C 92 % 1021,7 hPa 0,0 l/m 0,0 km/h (0 Bft) W 268 0 min 0,000 mm 0,0 UV-I 0 W/m -3,7 C -2,6 C 0,0 km/h (0 Bft)
18.03.2016 06:05 -2,5 C 92 % 1021,7 hPa 0,0 l/m 0,0 km/h (0 Bft) W 268 0 min 0,000 mm 0,0 UV-I 0 W/m -3,6 C -2,5 C 0,0 km/h (0 Bft)
18.03.2016 06:10 -2,4 C 92 % 1021,7 hPa 0,0 l/m 0,0 km/h (0 Bft) W 268 0 min 0,000 mm 0,0 UV-I 0 W/m -3,5 C -2,4 C 0,0 km/h (0 Bft)
18.03.2016 06:15 -2,3 C 93 % 1021,7 hPa 0,0 l/m 0,0 km/h (0 Bft) W 268 0 min 0,000 mm 0,0 UV-I 0 W/m -3,3 C -2,3 C 0,0 km/h (0 Bft)
18.03.2016 06:20 -2,4 C 92 % 1021,7 hPa 0,0 l/m 0,0 km/h (0 Bft) W 269 0 min 0,000 mm 0,0 UV-I 0 W/m -3,5 C -2,4 C 0,0 km/h (0 Bft)
18.03.2016 06:25 -2,6 C 91 % 1021,6 hPa 0,0 l/m 0,0 km/h (0 Bft) W 268 0 min 0,000 mm 0,0 UV-I 0 W/m -3,9 C -2,6 C 0,0 km/h (0 Bft)
18.03.2016 06:30 -2,7 C 91 % 1021,7 hPa 0,0 l/m 0,0 km/h (0 Bft) W 269 0 min 0,000 mm 0,0 UV-I 0 W/m -4,0 C -2,7 C 0,0 km/h (0 Bft)
18.03.2016 06:35 -2,7 C 92 % 1021,7 hPa 0,0 l/m 0,0 km/h (0 Bft) W 269 0 min 0,000 mm 0,0 UV-I 0 W/m -3,8 C -2,7 C 0,0 km/h (0 Bft)
18.03.2016 06:40 -2,6 C 93 % 1021,7 hPa 0,0 l/m 0,0 km/h (0 Bft) W 268 0 min 0,000 mm 0,0 UV-I 4 W/m -3,6 C -2,6 C 0,0 km/h (0 Bft)
18.03.2016 06:45 -2,6 C 93 % 1021,7 hPa 0,0 l/m 0,0 km/h (0 Bft) W 269 0 min 0,000 mm 0,0 UV-I 8 W/m -3,6 C -2,6 C 0,0 km/h (0 Bft)
18.03.2016 06:50 -2,6 C 93 % 1021,6 hPa 0,0 l/m 0,0 km/h (0 Bft) W 269 0 min 0,000 mm 0,0 UV-I 10 W/m -3,6 C -2,6 C 0,0 km/h (0 Bft)
18.03.2016 06:55 -2,6 C 93 % 1021,8 hPa 0,0 l/m 0,0 km/h (0 Bft) W 269 0 min 0,000 mm 0,0 UV-I 13 W/m -3,6 C -2,6 C 0,0 km/h (0 Bft)
18.03.2016 07:00 -2,6 C 93 % 1021,7 hPa 0,0 l/m 0,0 km/h (0 Bft) W 269 0 min 0,000 mm 0,0 UV-I 19 W/m -3,6 C -2,6 C 0,0 km/h (0 Bft)
18.03.2016 07:05 -2,5 C 93 % 1021,7 hPa 0,0 l/m 0,0 km/h (0 Bft) W 269 0 min 0,000 mm 0,0 UV-I 25 W/m -3,5 C -2,5 C 0,0 km/h (0 Bft)
18.03.2016 07:10 -2,4 C 93 % 1021,7 hPa 0,0 l/m 0,0 km/h (0 Bft) W 269 0 min 0,000 mm 0,0 UV-I 32 W/m -3,4 C -2,4 C 0,0 km/h (0 Bft)
18.03.2016 07:15 -2,3 C 93 % 1021,7 hPa 0,0 l/m 0,0 km/h (0 Bft) W 268 0 min 0,000 mm 0,0 UV-I 40 W/m -3,3 C -2,3 C 0,0 km/h (0 Bft)
18.03.2016 07:20 -2,2 C 93 % 1021,8 hPa 0,0 l/m 0,0 km/h (0 Bft) W 268 0 min 0,000 mm 0,0 UV-I 47 W/m -3,2 C -2,2 C 0,0 km/h (0 Bft)
18.03.2016 07:25 -2,2 C 92 % 1021,9 hPa 0,0 l/m 0,0 km/h (0 Bft) W 268 0 min 0,000 mm 0,0 UV-I 56 W/m -3,3 C -2,2 C 0,0 km/h (0 Bft)
18.03.2016 07:30 -2,2 C 92 % 1021,8 hPa 0,0 l/m 0,0 km/h (0 Bft) W 268 0 min 0,000 mm 0,0 UV-I 67 W/m -3,3 C -2,2 C 0,0 km/h (0 Bft)
18.03.2016 07:35 -2,1 C 92 % 1021,8 hPa 0,0 l/m 0,0 km/h (0 Bft) W 268 0 min 0,000 mm 0,0 UV-I 80 W/m -3,2 C -2,1 C 0,0 km/h (0 Bft)
18.03.2016 07:40 -2,0 C 93 % 1021,8 hPa 0,0 l/m 0,0 km/h (0 Bft) W 268 0 min 0,000 mm 0,0 UV-I 93 W/m -3,0 C -2,0 C 0,0 km/h (0 Bft)
18.03.2016 07:45 -1,9 C 92 % 1021,7 hPa 0,0 l/m 0,0 km/h (0 Bft) W 268 5 min 0,000 mm 0,0 UV-I 106 W/m -3,0 C -1,9 C 0,0 km/h (0 Bft)
18.03.2016 07:50 -1,7 C 92 % 1021,7 hPa 0,0 l/m 0,0 km/h (0 Bft) W 268 5 min 0,000 mm 0,0 UV-I 119 W/m -2,8 C -1,7 C 0,0 km/h (0 Bft)
18.03.2016 07:55 -1,5 C 92 % 1021,8 hPa 0,0 l/m 0,0 km/h (0 Bft) W 268 5 min 0,000 mm 0,0 UV-I 131 W/m -2,6 C -1,5 C 0,0 km/h (0 Bft)
18.03.2016 08:00 -1,1 C 92 % 1021,7 hPa 0,0 l/m 0,0 km/h (0 Bft) W 268 5 min 0,000 mm 0,0 UV-I 142 W/m -2,2 C -1,1 C 1,6 km/h (1 Bft)
18.03.2016 08:05 -0,8 C 91 % 1021,6 hPa 0,0 l/m 0,0 km/h (0 Bft) W 262 5 min 0,025 mm 0,0 UV-I 153 W/m -2,1 C -0,8 C 0,0 km/h (0 Bft)
18.03.2016 08:10 -0,4 C 91 % 1021,7 hPa 0,2 l/m 0,0 km/h (0 Bft) W 279 5 min 0,000 mm 0,3 UV-I 163 W/m -1,7 C -0,4 C 0,0 km/h (0 Bft)
18.03.2016 08:15 -0,1 C 90 % 1021,6 hPa 0,0 l/m 0,0 km/h (0 Bft) W-NW 286 5 min 0,000 mm 0,5 UV-I 174 W/m -1,5 C -0,1 C 0,0 km/h (0 Bft)
18.03.2016 08:20 0,3 C 89 % 1021,6 hPa 0,0 l/m 0,0 km/h (0 Bft) W-NW 292 5 min 0,000 mm 0,5 UV-I 184 W/m -1,3 C 0,3 C 0,0 km/h (0 Bft)
18.03.2016 08:25 0,7 C 87 % 1021,6 hPa 0,0 l/m 0,0 km/h (0 Bft) W 269 5 min 0,000 mm 0,5 UV-I 193 W/m -1,2 C 0,7 C 0,0 km/h (0 Bft)
18.03.2016 08:30 0,9 C 87 % 1021,6 hPa 0,0 l/m 0,0 km/h (0 Bft) W 273 5 min 0,000 mm 0,6 UV-I 202 W/m -1,0 C 0,9 C 0,0 km/h (0 Bft)
18.03.2016 08:35 1,5 C 86 % 1021,6 hPa 0,0 l/m 0,5 km/h (0 Bft) W-NW 287 5 min 0,000 mm 0,6 UV-I 209 W/m -0,6 C 1,5 C 4,8 km/h (1 Bft)
18.03.2016 08:40 1,8 C 85 % 1021,6 hPa 0,0 l/m 2,1 km/h (1 Bft) W 276 5 min 0,000 mm 0,7 UV-I 218 W/m -0,4 C 1,8 C 6,4 km/h (2 Bft)
18.03.2016 08:45 2,1 C 84 % 1021,5 hPa 0,0 l/m 2,0 km/h (1 Bft) W-SW 253 5 min 0,000 mm 0,7 UV-I 223 W/m -0,3 C 2,1 C 6,4 km/h (2 Bft)
18.03.2016 08:50 2,5 C 83 % 1021,5 hPa 0,0 l/m 2,5 km/h (1 Bft) W 259 5 min 0,000 mm 0,8 UV-I 240 W/m -0,1 C 2,5 C 6,4 km/h (2 Bft)
18.03.2016 08:55 2,8 C 82 % 1021,5 hPa 0,0 l/m 3,2 km/h (1 Bft) W-SW 242 5 min 0,000 mm 0,8 UV-I 252 W/m 0,0 C 2,8 C 8,0 km/h (2 Bft)
18.03.2016 09:00 3,2 C 81 % 1021,5 hPa 0,0 l/m 3,4 km/h (1 Bft) W-SW 246 5 min 0,000 mm 0,9 UV-I 264 W/m 0,3 C 3,2 C 8,0 km/h (2 Bft)
18.03.2016 09:05 3,5 C 80 % 1021,4 hPa 0,0 l/m 3,5 km/h (1 Bft) W-SW 245 5 min 0,077 mm 0,9 UV-I 277 W/m 0,4 C 3,5 C 9,7 km/h (2 Bft)
18.03.2016 09:10 3,9 C 80 % 1021,4 hPa 0,0 l/m 4,0 km/h (1 Bft) W 267 5 min 0,000 mm 0,9 UV-I 290 W/m 0,8 C 3,9 C 8,0 km/h (2 Bft)
18.03.2016 09:15 4,4 C 79 % 1021,3 hPa 0,0 l/m 2,5 km/h (1 Bft) W-NW 289 5 min 0,000 mm 1,0 UV-I 302 W/m 1,1 C 4,4 C 8,0 km/h (2 Bft)
18.03.2016 09:20 4,8 C 78 % 1021,3 hPa 0,0 l/m 3,3 km/h (1 Bft) W-SW 254 5 min 0,000 mm 1,0 UV-I 316 W/m 1,3 C 4,8 C 8,0 km/h (2 Bft)
18.03.2016 09:25 5,2 C 76 % 1021,3 hPa 0,0 l/m 2,5 km/h (1 Bft) SW 235 5 min 0,000 mm 1,1 UV-I 338 W/m 1,3 C 5,2 C 12,9 km/h (3 Bft)
18.03.2016 09:30 5,5 C 75 % 1021,2 hPa 0,0 l/m 4,8 km/h (1 Bft) W-SW 257 5 min 0,000 mm 1,1 UV-I 360 W/m 1,4 C 5,5 C 14,5 km/h (3 Bft)
18.03.2016 09:35 5,9 C 74 % 1021,2 hPa 0,0 l/m 4,1 km/h (1 Bft) SW 224 5 min 0,000 mm 1,2 UV-I 374 W/m 1,6 C 5,9 C 12,9 km/h (3 Bft)
18.03.2016 09:40 6,2 C 74 % 1021,1 hPa 0,0 l/m 4,5 km/h (1 Bft) W-SW 254 5 min 0,000 mm 1,3 UV-I 388 W/m 1,9 C 6,2 C 12,9 km/h (3 Bft)
18.03.2016 09:45 6,3 C 72 % 1021,2 hPa 0,0 l/m 5,5 km/h (1 Bft) W-SW 257 5 min 0,000 mm 1,3 UV-I 402 W/m 1,6 C 6,3 C 14,5 km/h (3 Bft)
18.03.2016 09:50 6,5 C 71 % 1021,1 hPa 0,0 l/m 6,9 km/h (2 Bft) SW 225 5 min 0,000 mm 1,3 UV-I 412 W/m 1,6 C 6,1 C 14,5 km/h (3 Bft)
18.03.2016 09:55 7,1 C 70 % 1021,2 hPa 0,0 l/m 2,3 km/h (1 Bft) W-NW 290 5 min 0,000 mm 1,4 UV-I 427 W/m 2,0 C 7,1 C 9,7 km/h (2 Bft)
18.03.2016 10:00 7,4 C 68 % 1021,1 hPa 0,0 l/m 3,1 km/h (1 Bft) S-SW 213 5 min 0,000 mm 1,5 UV-I 439 W/m 1,9 C 7,4 C 12,9 km/h (3 Bft)
18.03.2016 10:05 7,8 C 68 % 1021,1 hPa 0,0 l/m 3,6 km/h (1 Bft) SW 235 5 min 0,152 mm 1,5 UV-I 448 W/m 2,3 C 7,8 C 11,3 km/h (2 Bft)
18.03.2016 10:10 8,3 C 66 % 1021,0 hPa 0,0 l/m 1,6 km/h (1 Bft) SW 232 5 min 0,000 mm 1,6 UV-I 459 W/m 2,3 C 8,3 C 9,7 km/h (2 Bft)
18.03.2016 10:15 8,2 C 65 % 1021,0 hPa 0,0 l/m 2,0 km/h (1 Bft) W 261 5 min 0,000 mm 1,6 UV-I 469 W/m 2,0 C 8,2 C 8,0 km/h (2 Bft)
18.03.2016 10:20 8,7 C 63 % 1021,0 hPa 0,0 l/m 2,7 km/h (1 Bft) W 277 5 min 0,000 mm 1,7 UV-I 482 W/m 2,1 C 8,7 C 11,3 km/h (2 Bft)
18.03.2016 10:25 9,1 C 60 % 1021,0 hPa 0,0 l/m 3,5 km/h (1 Bft) W-SW 257 5 min 0,000 mm 1,8 UV-I 494 W/m 1,8 C 9,1 C 9,7 km/h (2 Bft)
18.03.2016 10:30 9,6 C 58 % 1021,0 hPa 0,0 l/m 2,7 km/h (1 Bft) W 271 5 min 0,000 mm 1,8 UV-I 505 W/m 1,8 C 9,6 C 11,3 km/h (2 Bft)
18.03.2016 10:35 9,6 C 55 % 1020,9 hPa 0,0 l/m 4,8 km/h (1 Bft) NW 313 5 min 0,000 mm 1,9 UV-I 516 W/m 1,0 C 9,6 C 11,3 km/h (2 Bft)
18.03.2016 10:40 9,8 C 55 % 1020,9 hPa 0,0 l/m 4,4 km/h (1 Bft) W-NW 286 5 min 0,000 mm 1,9 UV-I 522 W/m 1,2 C 9,8 C 11,3 km/h (2 Bft)
18.03.2016 10:45 10,6 C 55 % 1020,9 hPa 0,0 l/m 1,3 km/h (1 Bft) W-SW 257 5 min 0,000 mm 2,0 UV-I 527 W/m 1,9 C 10,6 C 9,7 km/h (2 Bft)
18.03.2016 10:50 10,7 C 53 % 1020,9 hPa 0,0 l/m 1,7 km/h (1 Bft) W-NW 296 5 min 0,000 mm 2,0 UV-I 533 W/m 1,5 C 10,7 C 8,0 km/h (2 Bft)
18.03.2016 10:55 10,9 C 50 % 1020,9 hPa 0,0 l/m 2,5 km/h (1 Bft) W-NW 296 5 min 0,000 mm 2,1 UV-I 543 W/m 0,9 C 10,9 C 11,3 km/h (2 Bft)
18.03.2016 11:00 11,4 C 50 % 1020,9 hPa 0,0 l/m 1,5 km/h (1 Bft) W 275 5 min 0,000 mm 2,1 UV-I 546 W/m 1,4 C 11,4 C 9,7 km/h (2 Bft)
18.03.2016 11:05 11,3 C 49 % 1020,9 hPa 0,0 l/m 2,3 km/h (1 Bft) NW 319 5 min 0,254 mm 2,2 UV-I 559 W/m 1,0 C 11,3 C 8,0 km/h (2 Bft)
18.03.2016 11:10 11,9 C 48 % 1020,9 hPa 0,0 l/m 1,4 km/h (1 Bft) W-NW 290 5 min 0,000 mm 2,2 UV-I 563 W/m 1,2 C 11,9 C 8,0 km/h (2 Bft)
18.03.2016 11:15 11,6 C 47 % 1020,8 hPa 0,0 l/m 4,2 km/h (1 Bft) W-NW 296 5 min 0,000 mm 2,2 UV-I 565 W/m 0,7 C 11,6 C 12,9 km/h (3 Bft)
18.03.2016 11:20 12,2 C 47 % 1020,6 hPa 0,0 l/m 1,8 km/h (1 Bft) NW 306 5 min 0,000 mm 2,3 UV-I 573 W/m 1,2 C 12,2 C 9,7 km/h (2 Bft)
18.03.2016 11:25 12,0 C 44 % 1020,6 hPa 0,0 l/m 1,7 km/h (1 Bft) W 278 5 min 0,000 mm 2,3 UV-I 581 W/m 0,1 C 12,0 C 8,0 km/h (2 Bft)
18.03.2016 11:30 12,6 C 43 % 1020,7 hPa 0,0 l/m 1,0 km/h (0 Bft) W 274 5 min 0,000 mm 2,4 UV-I 586 W/m 0,4 C 12,6 C 4,8 km/h (1 Bft)
18.03.2016 11:35 12,2 C 44 % 1020,6 hPa 0,0 l/m 1,4 km/h (1 Bft) W 275 5 min 0,000 mm 2,4 UV-I 589 W/m 0,3 C 12,2 C 6,4 km/h (2 Bft)
18.03.2016 11:40 12,5 C 43 % 1020,5 hPa 0,0 l/m 2,1 km/h (1 Bft) W 264 5 min 0,000 mm 2,4 UV-I 593 W/m 0,3 C 12,5 C 14,5 km/h (3 Bft)
18.03.2016 11:45 12,8 C 43 % 1020,5 hPa 0,0 l/m 1,0 km/h (0 Bft) SW 236 5 min 0,000 mm 2,4 UV-I 601 W/m 0,5 C 12,8 C 11,3 km/h (2 Bft)
18.03.2016 11:50 12,4 C 43 % 1020,4 hPa 0,0 l/m 3,3 km/h (1 Bft) W-NW 285 5 min 0,000 mm 2,5 UV-I 605 W/m 0,2 C 12,4 C 11,3 km/h (2 Bft)
18.03.2016 11:55 12,3 C 42 % 1020,4 hPa 0,0 l/m 1,4 km/h (1 Bft) N-NW 335 5 min 0,000 mm 2,5 UV-I 611 W/m -0,2 C 12,3 C 4,8 km/h (1 Bft)
18.03.2016 12:00 13,1 C 43 % 1020,4 hPa 0,0 l/m 0,4 km/h (0 Bft) W-NW 285 5 min 0,000 mm 2,5 UV-I 614 W/m 0,8 C 13,1 C 3,2 km/h (1 Bft)
18.03.2016 12:05 12,8 C 42 % 1020,4 hPa 0,0 l/m 2,4 km/h (1 Bft) W 268 5 min 0,305 mm 2,6 UV-I 616 W/m 0,2 C 12,8 C 11,3 km/h (2 Bft)
18.03.2016 12:10 12,8 C 40 % 1020,3 hPa 0,0 l/m 2,6 km/h (1 Bft) W 264 5 min 0,000 mm 2,6 UV-I 620 W/m -0,5 C 12,8 C 9,7 km/h (2 Bft)
18.03.2016 12:15 13,2 C 41 % 1020,4 hPa 0,0 l/m 2,3 km/h (1 Bft) W-NW 288 5 min 0,000 mm 2,6 UV-I 625 W/m 0,2 C 13,2 C 9,7 km/h (2 Bft)
18.03.2016 12:20 12,6 C 42 % 1020,4 hPa 0,0 l/m 6,1 km/h (2 Bft) W-NW 289 5 min 0,000 mm 2,6 UV-I 623 W/m 0,0 C 12,6 C 19,3 km/h (3 Bft)
18.03.2016 12:25 12,7 C 41 % 1020,4 hPa 0,0 l/m 3,9 km/h (1 Bft) W 273 5 min 0,000 mm 2,6 UV-I 624 W/m -0,2 C 12,7 C 9,7 km/h (2 Bft)
18.03.2016 12:30 12,8 C 40 % 1020,5 hPa 0,0 l/m 3,6 km/h (1 Bft) W 278 5 min 0,000 mm 2,6 UV-I 623 W/m -0,5 C 12,8 C 11,3 km/h (2 Bft)
18.03.2016 12:35 13,2 C 41 % 1020,4 hPa 0,0 l/m 2,1 km/h (1 Bft) W 281 5 min 0,000 mm 2,5 UV-I 620 W/m 0,2 C 13,2 C 9,7 km/h (2 Bft)
18.03.2016 12:40 12,8 C 41 % 1020,3 hPa 0,0 l/m 4,9 km/h (1 Bft) W 264 5 min 0,000 mm 2,5 UV-I 625 W/m -0,1 C 12,8 C 12,9 km/h (3 Bft)
18.03.2016 12:45 13,3 C 42 % 1020,2 hPa 0,0 l/m 2,8 km/h (1 Bft) SW 235 5 min 0,000 mm 2,5 UV-I 626 W/m 0,7 C 13,3 C 12,9 km/h (3 Bft)
18.03.2016 12:50 13,4 C 43 % 1020,1 hPa 0,0 l/m 2,5 km/h (1 Bft) NW 312 5 min 0,000 mm 2,5 UV-I 627 W/m 1,1 C 13,4 C 6,4 km/h (2 Bft)
18.03.2016 12:55 13,5 C 42 % 1020,1 hPa 0,0 l/m 3,1 km/h (1 Bft) SW 215 5 min 0,000 mm 2,5 UV-I 624 W/m 0,8 C 13,5 C 11,3 km/h (2 Bft)
18.03.2016 13:00 13,2 C 43 % 1020,0 hPa 0,0 l/m 7,0 km/h (2 Bft) W-NW 302 5 min 0,000 mm 2,5 UV-I 621 W/m 0,9 C 12,8 C 16,1 km/h (3 Bft)
18.03.2016 13:05 13,4 C 43 % 1020,0 hPa 0,0 l/m 4,9 km/h (1 Bft) W-NW 289 5 min 0,330 mm 2,5 UV-I 616 W/m 1,1 C 13,4 C 12,9 km/h (3 Bft)
18.03.2016 13:10 13,3 C 43 % 1019,8 hPa 0,0 l/m 1,7 km/h (1 Bft) NW 317 5 min 0,000 mm 2,4 UV-I 614 W/m 1,0 C 13,3 C 11,3 km/h (2 Bft)
18.03.2016 13:15 13,7 C 42 % 1019,8 hPa 0,0 l/m 3,0 km/h (1 Bft) W-SW 243 5 min 0,000 mm 2,4 UV-I 614 W/m 1,0 C 13,7 C 9,7 km/h (2 Bft)
18.03.2016 13:20 14,4 C 42 % 1019,7 hPa 0,0 l/m 1,3 km/h (1 Bft) W-NW 298 5 min 0,000 mm 2,4 UV-I 614 W/m 1,7 C 14,4 C 8,0 km/h (2 Bft)
18.03.2016 13:25 15,0 C 41 % 1019,6 hPa 0,0 l/m 2,2 km/h (1 Bft) W 280 5 min 0,000 mm 2,4 UV-I 617 W/m 1,9 C 15,0 C 9,7 km/h (2 Bft)
18.03.2016 13:30 14,2 C 42 % 1019,6 hPa 0,0 l/m 3,7 km/h (1 Bft) W-NW 284 5 min 0,000 mm 2,3 UV-I 608 W/m 1,5 C 14,2 C 14,5 km/h (3 Bft)
18.03.2016 13:35 13,8 C 44 % 1019,5 hPa 0,0 l/m 2,9 km/h (1 Bft) SW 234 5 min 0,000 mm 2,3 UV-I 607 W/m 1,8 C 13,8 C 9,7 km/h (2 Bft)
18.03.2016 13:40 13,8 C 44 % 1019,4 hPa 0,0 l/m 6,4 km/h (2 Bft) W-SW 249 5 min 0,000 mm 2,3 UV-I 611 W/m 1,8 C 13,8 C 14,5 km/h (3 Bft)
18.03.2016 13:45 14,2 C 44 % 1019,3 hPa 0,0 l/m 3,0 km/h (1 Bft) SW 231 5 min 0,000 mm 2,3 UV-I 614 W/m 2,1 C 14,2 C 11,3 km/h (2 Bft)
18.03.2016 13:50 14,5 C 45 % 1019,3 hPa 0,0 l/m 1,3 km/h (1 Bft) W-SW 251 5 min 0,000 mm 2,3 UV-I 619 W/m 2,7 C 14,5 C 8,0 km/h (2 Bft)
18.03.2016 13:55 15,0 C 42 % 1019,2 hPa 0,0 l/m 3,0 km/h (1 Bft) W-NW 292 5 min 0,000 mm 2,2 UV-I 561 W/m 2,2 C 15,0 C 12,9 km/h (3 Bft)
18.03.2016 14:00 14,8 C 42 % 1019,1 hPa 0,0 l/m 3,0 km/h (1 Bft) SW 224 5 min 0,000 mm 2,1 UV-I 566 W/m 2,0 C 14,8 C 11,3 km/h (2 Bft)
18.03.2016 14:05 14,3 C 43 % 1019,1 hPa 0,0 l/m 2,8 km/h (1 Bft) W-SW 238 5 min 0,330 mm 2,0 UV-I 532 W/m 1,9 C 14,3 C 8,0 km/h (2 Bft)
18.03.2016 14:10 14,2 C 43 % 1019,1 hPa 0,0 l/m 5,4 km/h (1 Bft) W-SW 237 5 min 0,000 mm 2,0 UV-I 520 W/m 1,8 C 14,2 C 14,5 km/h (3 Bft)
18.03.2016 14:15 14,7 C 43 % 1019,0 hPa 0,0 l/m 2,9 km/h (1 Bft) W-NW 294 5 min 0,000 mm 2,1 UV-I 603 W/m 2,3 C 14,7 C 20,9 km/h (4 Bft)
18.03.2016 14:20 14,7 C 43 % 1018,9 hPa 0,0 l/m 3,3 km/h (1 Bft) NW 311 5 min 0,000 mm 2,0 UV-I 600 W/m 2,3 C 14,7 C 16,1 km/h (3 Bft)
18.03.2016 14:25 14,8 C 42 % 1018,9 hPa 0,0 l/m 3,0 km/h (1 Bft) NW 326 5 min 0,000 mm 1,9 UV-I 573 W/m 2,0 C 14,8 C 14,5 km/h (3 Bft)
18.03.2016 14:30 15,2 C 42 % 1018,9 hPa 0,0 l/m 1,5 km/h (1 Bft) W-NW 282 5 min 0,000 mm 1,8 UV-I 530 W/m 2,4 C 15,2 C 9,7 km/h (2 Bft)
18.03.2016 14:35 15,3 C 42 % 1018,6 hPa 0,0 l/m 2,0 km/h (1 Bft) W-NW 297 5 min 0,000 mm 1,6 UV-I 436 W/m 2,5 C 15,3 C 9,7 km/h (2 Bft)
18.03.2016 14:40 15,1 C 42 % 1018,8 hPa 0,0 l/m 3,0 km/h (1 Bft) W-NW 282 5 min 0,000 mm 1,7 UV-I 493 W/m 2,3 C 15,1 C 9,7 km/h (2 Bft)
18.03.2016 14:45 15,0 C 42 % 1018,8 hPa 0,0 l/m 3,1 km/h (1 Bft) W-NW 283 5 min 0,000 mm 1,7 UV-I 530 W/m 2,2 C 15,0 C 9,7 km/h (2 Bft)
18.03.2016 14:50 14,8 C 43 % 1018,8 hPa 0,0 l/m 2,4 km/h (1 Bft) W-SW 237 5 min 0,000 mm 1,6 UV-I 510 W/m 2,3 C 14,8 C 9,7 km/h (2 Bft)
18.03.2016 14:55 14,9 C 42 % 1018,8 hPa 0,0 l/m 3,6 km/h (1 Bft) W-SW 254 5 min 0,000 mm 1,5 UV-I 501 W/m 2,1 C 14,9 C 11,3 km/h (2 Bft)
18.03.2016 15:00 14,8 C 43 % 1018,7 hPa 0,0 l/m 3,8 km/h (1 Bft) NW 311 5 min 0,000 mm 1,5 UV-I 495 W/m 2,3 C 14,8 C 12,9 km/h (3 Bft)
18.03.2016 15:05 15,1 C 42 % 1018,7 hPa 0,0 l/m 3,1 km/h (1 Bft) W 275 5 min 0,305 mm 1,4 UV-I 480 W/m 2,3 C 15,1 C 12,9 km/h (3 Bft)
18.03.2016 15:10 14,8 C 43 % 1018,7 hPa 0,0 l/m 3,7 km/h (1 Bft) NW 316 5 min 0,000 mm 1,4 UV-I 471 W/m 2,3 C 14,8 C 11,3 km/h (2 Bft)
18.03.2016 15:15 15,1 C 42 % 1018,7 hPa 0,0 l/m 2,7 km/h (1 Bft) W-NW 294 5 min 0,000 mm 1,3 UV-I 457 W/m 2,3 C 15,1 C 17,7 km/h (3 Bft)
18.03.2016 15:20 14,6 C 44 % 1018,6 hPa 0,0 l/m 4,4 km/h (1 Bft) W 279 5 min 0,000 mm 1,3 UV-I 450 W/m 2,5 C 14,6 C 11,3 km/h (2 Bft)
18.03.2016 15:25 14,2 C 44 % 1018,6 hPa 0,0 l/m 4,9 km/h (1 Bft) W-SW 250 5 min 0,000 mm 1,3 UV-I 447 W/m 2,1 C 14,2 C 14,5 km/h (3 Bft)
18.03.2016 15:30 14,6 C 44 % 1018,6 hPa 0,0 l/m 3,2 km/h (1 Bft) W-SW 240 5 min 0,000 mm 1,2 UV-I 433 W/m 2,5 C 14,6 C 12,9 km/h (3 Bft)
18.03.2016 15:35 14,2 C 45 % 1018,6 hPa 0,0 l/m 4,4 km/h (1 Bft) W 265 5 min 0,000 mm 1,1 UV-I 424 W/m 2,4 C 14,2 C 17,7 km/h (3 Bft)
18.03.2016 15:40 14,3 C 43 % 1018,6 hPa 0,0 l/m 5,6 km/h (1 Bft) W-SW 244 5 min 0,000 mm 1,1 UV-I 406 W/m 1,9 C 14,3 C 16,1 km/h (3 Bft)
18.03.2016 15:45 14,2 C 45 % 1018,7 hPa 0,0 l/m 3,0 km/h (1 Bft) N-NW 329 5 min 0,000 mm 1,0 UV-I 398 W/m 2,4 C 14,2 C 9,7 km/h (2 Bft)
18.03.2016 15:50 14,7 C 44 % 1018,6 hPa 0,0 l/m 0,9 km/h (0 Bft) NW 312 5 min 0,000 mm 1,0 UV-I 390 W/m 2,6 C 14,7 C 8,0 km/h (2 Bft)
18.03.2016 15:55 14,8 C 44 % 1018,5 hPa 0,0 l/m 1,1 km/h (1 Bft) W-SW 250 5 min 0,000 mm 0,9 UV-I 378 W/m 2,7 C 14,8 C 6,4 km/h (2 Bft)
18.03.2016 16:00 14,5 C 46 % 1018,6 hPa 0,0 l/m 2,0 km/h (1 Bft) W-NW 295 5 min 0,000 mm 0,9 UV-I 354 W/m 3,0 C 14,5 C 9,7 km/h (2 Bft)
18.03.2016 16:05 14,3 C 45 % 1018,5 hPa 0,0 l/m 1,8 km/h (1 Bft) NW 304 5 min 0,254 mm 0,8 UV-I 340 W/m 2,5 C 14,3 C 11,3 km/h (2 Bft)
18.03.2016 16:10 13,6 C 47 % 1018,6 hPa 0,0 l/m 10,1 km/h (2 Bft) W 281 5 min 0,000 mm 0,8 UV-I 328 W/m 2,5 C 11,5 C 20,9 km/h (4 Bft)
18.03.2016 16:15 13,2 C 48 % 1018,7 hPa 0,0 l/m 6,1 km/h (2 Bft) W 272 5 min 0,000 mm 0,8 UV-I 318 W/m 2,4 C 13,2 C 17,7 km/h (3 Bft)
18.03.2016 16:20 13,1 C 49 % 1018,6 hPa 0,0 l/m 7,6 km/h (2 Bft) W-NW 284 5 min 0,000 mm 0,7 UV-I 307 W/m 2,6 C 12,3 C 17,7 km/h (3 Bft)
18.03.2016 16:25 13,2 C 49 % 1018,7 hPa 0,0 l/m 2,8 km/h (1 Bft) NW 308 5 min 0,000 mm 0,7 UV-I 305 W/m 2,7 C 13,2 C 16,1 km/h (3 Bft)
18.03.2016 16:30 13,2 C 50 % 1018,6 hPa 0,0 l/m 3,8 km/h (1 Bft) W 261 5 min 0,000 mm 0,7 UV-I 293 W/m 3,0 C 13,2 C 17,7 km/h (3 Bft)
18.03.2016 16:35 12,8 C 50 % 1018,6 hPa 0,0 l/m 8,8 km/h (2 Bft) NW 305 5 min 0,000 mm 0,6 UV-I 279 W/m 2,6 C 11,3 C 19,3 km/h (3 Bft)
18.03.2016 16:40 12,9 C 50 % 1018,6 hPa 0,0 l/m 2,8 km/h (1 Bft) W-NW 294 5 min 0,000 mm 0,6 UV-I 263 W/m 2,7 C 12,9 C 12,9 km/h (3 Bft)
18.03.2016 16:45 12,8 C 50 % 1018,6 hPa 0,0 l/m 5,7 km/h (1 Bft) NW 326 5 min 0,000 mm 0,5 UV-I 250 W/m 2,6 C 12,8 C 19,3 km/h (3 Bft)
18.03.2016 16:50 12,7 C 50 % 1018,6 hPa 0,0 l/m 3,4 km/h (1 Bft) W-SW 257 5 min 0,000 mm 0,5 UV-I 236 W/m 2,6 C 12,7 C 11,3 km/h (2 Bft)
18.03.2016 16:55 12,7 C 51 % 1018,6 hPa 0,0 l/m 1,9 km/h (1 Bft) W 277 5 min 0,000 mm 0,5 UV-I 222 W/m 2,8 C 12,7 C 11,3 km/h (2 Bft)
18.03.2016 17:00 12,6 C 51 % 1018,6 hPa 0,0 l/m 1,9 km/h (1 Bft) NW 311 5 min 0,000 mm 0,2 UV-I 212 W/m 2,7 C 12,6 C 11,3 km/h (2 Bft)
18.03.2016 17:05 12,8 C 51 % 1018,6 hPa 0,0 l/m 1,3 km/h (1 Bft) W 281 5 min 0,178 mm 0,0 UV-I 199 W/m 2,9 C 12,8 C 8,0 km/h (2 Bft)
18.03.2016 17:10 12,4 C 52 % 1018,6 hPa 0,0 l/m 2,5 km/h (1 Bft) W-NW 296 5 min 0,000 mm 0,0 UV-I 180 W/m 2,8 C 12,4 C 11,3 km/h (2 Bft)
18.03.2016 17:15 11,9 C 53 % 1018,7 hPa 0,0 l/m 4,4 km/h (1 Bft) W-NW 285 5 min 0,000 mm 0,0 UV-I 166 W/m 2,6 C 11,9 C 12,9 km/h (3 Bft)
18.03.2016 17:20 11,6 C 55 % 1018,6 hPa 0,0 l/m 2,8 km/h (1 Bft) W 272 5 min 0,000 mm 0,0 UV-I 147 W/m 2,9 C 11,6 C 14,5 km/h (3 Bft)
18.03.2016 17:25 11,6 C 56 % 1018,6 hPa 0,0 l/m 1,5 km/h (1 Bft) NW 320 5 min 0,000 mm 0,0 UV-I 134 W/m 3,1 C 11,6 C 14,5 km/h (3 Bft)
18.03.2016 17:30 11,6 C 55 % 1018,7 hPa 0,0 l/m 0,8 km/h (0 Bft) NW 311 5 min 0,000 mm 0,0 UV-I 119 W/m 2,9 C 11,6 C 9,7 km/h (2 Bft)
18.03.2016 17:35 11,6 C 55 % 1018,8 hPa 0,0 l/m 0,6 km/h (0 Bft) W 273 5 min 0,000 mm 0,0 UV-I 105 W/m 2,9 C 11,6 C 6,4 km/h (2 Bft)
18.03.2016 17:40 11,3 C 57 % 1018,8 hPa 0,0 l/m 1,6 km/h (1 Bft) N-NW 329 5 min 0,000 mm 0,0 UV-I 93 W/m 3,1 C 11,3 C 9,7 km/h (2 Bft)
18.03.2016 17:45 11,1 C 57 % 1018,8 hPa 0,0 l/m 2,3 km/h (1 Bft) W 279 5 min 0,000 mm 0,0 UV-I 82 W/m 2,9 C 11,1 C 11,3 km/h (2 Bft)
18.03.2016 17:50 10,8 C 58 % 1018,8 hPa 0,0 l/m 1,3 km/h (1 Bft) SO 144 5 min 0,000 mm 0,0 UV-I 68 W/m 2,9 C 10,8 C 9,7 km/h (2 Bft)
18.03.2016 17:55 10,6 C 59 % 1018,8 hPa 0,0 l/m 1,7 km/h (1 Bft) W-NW 301 5 min 0,000 mm 0,0 UV-I 56 W/m 2,9 C 10,6 C 12,9 km/h (3 Bft)
18.03.2016 18:00 10,2 C 60 % 1018,8 hPa 0,0 l/m 2,2 km/h (1 Bft) W-SW 254 0 min 0,000 mm 0,0 UV-I 46 W/m 2,8 C 10,2 C 12,9 km/h (3 Bft)
18.03.2016 18:05 9,8 C 61 % 1018,8 hPa 0,0 l/m 0,5 km/h (0 Bft) W-NW 283 0 min 0,076 mm 0,0 UV-I 39 W/m 2,6 C 9,8 C 3,2 km/h (1 Bft)
18.03.2016 18:10 9,6 C 62 % 1018,9 hPa 0,0 l/m 2,1 km/h (1 Bft) W 278 0 min 0,000 mm 0,0 UV-I 32 W/m 2,7 C 9,6 C 12,9 km/h (3 Bft)
18.03.2016 18:15 9,2 C 63 % 1018,9 hPa 0,0 l/m 4,5 km/h (1 Bft) W-NW 290 5 min 0,000 mm 0,0 UV-I 26 W/m 2,5 C 9,2 C 14,5 km/h (3 Bft)
18.03.2016 18:20 8,7 C 65 % 1018,9 hPa 0,0 l/m 1,3 km/h (1 Bft) W 268 5 min 0,000 mm 0,0 UV-I 20 W/m 2,5 C 8,7 C 8,0 km/h (2 Bft)
18.03.2016 18:25 8,2 C 67 % 1018,9 hPa 0,0 l/m 4,1 km/h (1 Bft) W-SW 245 5 min 0,000 mm 0,0 UV-I 17 W/m 2,4 C 8,2 C 11,3 km/h (2 Bft)
18.03.2016 18:30 7,8 C 68 % 1019,0 hPa 0,0 l/m 2,9 km/h (1 Bft) W-SW 250 0 min 0,000 mm 0,0 UV-I 12 W/m 2,3 C 7,8 C 9,7 km/h (2 Bft)
18.03.2016 18:35 7,4 C 70 % 1019,0 hPa 0,0 l/m 7,7 km/h (2 Bft) W-SW 238 0 min 0,000 mm 0,0 UV-I 9 W/m 2,3 C 6,4 C 17,7 km/h (3 Bft)
18.03.2016 18:40 7,1 C 71 % 1019,0 hPa 0,0 l/m 7,7 km/h (2 Bft) W 259 0 min 0,000 mm 0,0 UV-I 5 W/m 2,2 C 6,0 C 14,5 km/h (3 Bft)
18.03.2016 18:45 6,9 C 71 % 1019,0 hPa 0,0 l/m 6,0 km/h (2 Bft) W-SW 244 0 min 0,000 mm 0,0 UV-I 0 W/m 2,0 C 6,9 C 11,3 km/h (2 Bft)
18.03.2016 18:50 6,7 C 72 % 1019,0 hPa 0,0 l/m 6,2 km/h (2 Bft) W-NW 285 0 min 0,000 mm 0,0 UV-I 0 W/m 2,0 C 6,7 C 11,3 km/h (2 Bft)
18.03.2016 18:55 6,3 C 74 % 1019,1 hPa 0,0 l/m 7,2 km/h (2 Bft) W-NW 282 0 min 0,000 mm 0,0 UV-I 0 W/m 2,0 C 5,6 C 14,5 km/h (3 Bft)
18.03.2016 19:00 5,8 C 76 % 1019,2 hPa 0,0 l/m 7,6 km/h (2 Bft) W-SW 249 0 min 0,000 mm 0,0 UV-I 0 W/m 1,9 C 4,8 C 16,1 km/h (3 Bft)
18.03.2016 19:05 5,6 C 77 % 1019,3 hPa 0,0 l/m 8,2 km/h (2 Bft) W 265 0 min 0,025 mm 0,0 UV-I 0 W/m 1,9 C 4,1 C 14,5 km/h (3 Bft)
18.03.2016 19:10 5,3 C 77 % 1019,3 hPa 0,0 l/m 6,6 km/h (2 Bft) W-NW 292 0 min 0,000 mm 0,0 UV-I 0 W/m 1,6 C 5,1 C 12,9 km/h (3 Bft)
18.03.2016 19:15 5,2 C 78 % 1019,3 hPa 0,0 l/m 5,4 km/h (1 Bft) W-SW 255 0 min 0,000 mm 0,0 UV-I 0 W/m 1,7 C 5,2 C 12,9 km/h (3 Bft)
18.03.2016 19:20 5,1 C 78 % 1019,4 hPa 0,0 l/m 2,6 km/h (1 Bft) SW 226 0 min 0,000 mm 0,0 UV-I 0 W/m 1,6 C 5,1 C 8,0 km/h (2 Bft)
18.03.2016 19:25 5,0 C 78 % 1019,6 hPa 0,0 l/m 4,8 km/h (1 Bft) W-NW 290 0 min 0,000 mm 0,0 UV-I 0 W/m 1,5 C 5,0 C 9,7 km/h (2 Bft)
18.03.2016 19:30 4,9 C 79 % 1019,5 hPa 0,0 l/m 3,1 km/h (1 Bft) W 271 0 min 0,000 mm 0,0 UV-I 0 W/m 1,6 C 4,9 C 8,0 km/h (2 Bft)
18.03.2016 19:35 4,7 C 79 % 1019,7 hPa 0,0 l/m 3,9 km/h (1 Bft) W 281 0 min 0,000 mm 0,0 UV-I 0 W/m 1,4 C 4,7 C 11,3 km/h (2 Bft)
18.03.2016 19:40 4,5 C 80 % 1019,7 hPa 0,0 l/m 6,7 km/h (2 Bft) W-SW 244 0 min 0,000 mm 0,0 UV-I 0 W/m 1,4 C 4,2 C 14,5 km/h (3 Bft)
18.03.2016 19:45 4,4 C 81 % 1019,8 hPa 0,0 l/m 6,1 km/h (2 Bft) SW 223 0 min 0,000 mm 0,0 UV-I 0 W/m 1,4 C 4,4 C 11,3 km/h (2 Bft)
18.03.2016 19:50 4,2 C 81 % 1019,8 hPa 0,0 l/m 3,2 km/h (1 Bft) W 273 0 min 0,000 mm 0,0 UV-I 0 W/m 1,2 C 4,2 C 12,9 km/h (3 Bft)
18.03.2016 19:55 4,1 C 82 % 1019,9 hPa 0,0 l/m 4,9 km/h (1 Bft) W-SW 240 0 min 0,000 mm 0,0 UV-I 0 W/m 1,3 C 4,1 C 12,9 km/h (3 Bft)
18.03.2016 20:00 4,0 C 82 % 1019,9 hPa 0,0 l/m 5,9 km/h (2 Bft) W 279 0 min 0,000 mm 0,0 UV-I 0 W/m 1,2 C 4,0 C 12,9 km/h (3 Bft)
18.03.2016 20:05 3,9 C 83 % 1020,0 hPa 0,0 l/m 4,7 km/h (1 Bft) W-SW 250 0 min 0,026 mm 0,0 UV-I 0 W/m 1,3 C 3,9 C 12,9 km/h (3 Bft)
18.03.2016 20:10 3,8 C 83 % 1020,1 hPa 0,0 l/m 4,7 km/h (1 Bft) W 274 0 min 0,000 mm 0,0 UV-I 0 W/m 1,2 C 3,8 C 11,3 km/h (2 Bft)
18.03.2016 20:15 3,7 C 83 % 1020,1 hPa 0,0 l/m 1,9 km/h (1 Bft) W 280 0 min 0,000 mm 0,0 UV-I 0 W/m 1,1 C 3,7 C 8,0 km/h (2 Bft)
18.03.2016 20:20 3,7 C 84 % 1020,1 hPa 0,0 l/m 1,2 km/h (1 Bft) W-SW 250 0 min 0,000 mm 0,0 UV-I 0 W/m 1,3 C 3,7 C 6,4 km/h (2 Bft)
18.03.2016 20:25 3,6 C 84 % 1020,3 hPa 0,0 l/m 0,4 km/h (0 Bft) W-SW 257 0 min 0,000 mm 0,0 UV-I 0 W/m 1,2 C 3,6 C 3,2 km/h (1 Bft)
18.03.2016 20:30 3,6 C 84 % 1020,5 hPa 0,0 l/m 0,0 km/h (0 Bft) W-NW 294 0 min 0,000 mm 0,0 UV-I 0 W/m 1,2 C 3,6 C 0,0 km/h (0 Bft)
18.03.2016 20:35 3,6 C 84 % 1020,5 hPa 0,0 l/m 0,3 km/h (0 Bft) W-NW 297 0 min 0,000 mm 0,0 UV-I 0 W/m 1,2 C 3,6 C 4,8 km/h (1 Bft)
18.03.2016 20:40 3,7 C 84 % 1020,5 hPa 0,0 l/m 4,0 km/h (1 Bft) W 268 0 min 0,000 mm 0,0 UV-I 0 W/m 1,3 C 3,7 C 12,9 km/h (3 Bft)
18.03.2016 20:45 3,7 C 83 % 1020,5 hPa 0,0 l/m 0,2 km/h (0 Bft) NW 311 0 min 0,000 mm 0,0 UV-I 0 W/m 1,1 C 3,7 C 4,8 km/h (1 Bft)
18.03.2016 20:50 3,7 C 83 % 1020,7 hPa 0,0 l/m 0,1 km/h (0 Bft) W-NW 290 0 min 0,000 mm 0,0 UV-I 0 W/m 1,1 C 3,7 C 3,2 km/h (1 Bft)
18.03.2016 20:55 3,7 C 83 % 1020,7 hPa 0,0 l/m 0,0 km/h (0 Bft) W-NW 283 0 min 0,000 mm 0,0 UV-I 0 W/m 1,1 C 3,7 C 1,6 km/h (1 Bft)
18.03.2016 21:00 3,7 C 83 % 1020,7 hPa 0,0 l/m 0,5 km/h (0 Bft) NW 305 0 min 0,000 mm 0,0 UV-I 0 W/m 1,1 C 3,7 C 11,3 km/h (2 Bft)
18.03.2016 21:05 3,8 C 83 % 1020,6 hPa 0,0 l/m 0,0 km/h (0 Bft) W-NW 283 0 min 0,000 mm 0,0 UV-I 0 W/m 1,2 C 3,8 C 1,6 km/h (1 Bft)
18.03.2016 21:10 3,8 C 83 % 1020,6 hPa 0,0 l/m 0,2 km/h (0 Bft) W-NW 286 0 min 0,000 mm 0,0 UV-I 0 W/m 1,2 C 3,8 C 3,2 km/h (1 Bft)
18.03.2016 21:15 3,8 C 83 % 1020,7 hPa 0,0 l/m 0,1 km/h (0 Bft) W-NW 292 0 min 0,000 mm 0,0 UV-I 0 W/m 1,2 C 3,8 C 3,2 km/h (1 Bft)
18.03.2016 21:20 3,8 C 83 % 1020,8 hPa 0,0 l/m 1,0 km/h (0 Bft) W 268 0 min 0,000 mm 0,0 UV-I 0 W/m 1,2 C 3,8 C 11,3 km/h (2 Bft)
18.03.2016 21:25 3,8 C 83 % 1020,8 hPa 0,0 l/m 0,3 km/h (0 Bft) W-NW 300 0 min 0,000 mm 0,0 UV-I 0 W/m 1,2 C 3,8 C 6,4 km/h (2 Bft)
18.03.2016 21:30 3,8 C 83 % 1020,9 hPa 0,0 l/m 0,1 km/h (0 Bft) NW 306 0 min 0,000 mm 0,0 UV-I 0 W/m 1,2 C 3,8 C 4,8 km/h (1 Bft)
18.03.2016 21:35 3,8 C 83 % 1020,8 hPa 0,0 l/m 0,0 km/h (0 Bft) W-NW 294 0 min 0,000 mm 0,0 UV-I 0 W/m 1,2 C 3,8 C 1,6 km/h (1 Bft)
18.03.2016 21:40 3,8 C 83 % 1020,8 hPa 0,0 l/m 0,3 km/h (0 Bft) NW 313 0 min 0,000 mm 0,0 UV-I 0 W/m 1,2 C 3,8 C 4,8 km/h (1 Bft)
18.03.2016 21:45 3,8 C 83 % 1020,9 hPa 0,0 l/m 0,2 km/h (0 Bft) NW 312 0 min 0,000 mm 0,0 UV-I 0 W/m 1,2 C 3,8 C 4,8 km/h (1 Bft)
18.03.2016 21:50 3,7 C 83 % 1020,9 hPa 0,0 l/m 0,6 km/h (0 Bft) NW 304 0 min 0,000 mm 0,0 UV-I 0 W/m 1,1 C 3,7 C 9,7 km/h (2 Bft)
18.03.2016 21:55 3,7 C 83 % 1021,0 hPa 0,0 l/m 0,1 km/h (0 Bft) NW 306 0 min 0,000 mm 0,0 UV-I 0 W/m 1,1 C 3,7 C 3,2 km/h (1 Bft)
18.03.2016 22:00 3,7 C 83 % 1021,0 hPa 0,0 l/m 0,1 km/h (0 Bft) W-NW 298 0 min 0,000 mm 0,0 UV-I 0 W/m 1,1 C 3,7 C 1,6 km/h (1 Bft)
18.03.2016 22:05 3,7 C 83 % 1021,0 hPa 0,0 l/m 1,0 km/h (0 Bft) W-NW 297 0 min 0,000 mm 0,0 UV-I 0 W/m 1,1 C 3,7 C 8,0 km/h (2 Bft)
18.03.2016 22:10 3,6 C 83 % 1021,1 hPa 0,0 l/m 0,3 km/h (0 Bft) NW 305 0 min 0,000 mm 0,0 UV-I 0 W/m 1,0 C 3,6 C 3,2 km/h (1 Bft)
18.03.2016 22:15 3,7 C 83 % 1021,1 hPa 0,0 l/m 1,0 km/h (0 Bft) W-SW 255 0 min 0,000 mm 0,0 UV-I 0 W/m 1,1 C 3,7 C 8,0 km/h (2 Bft)
18.03.2016 22:20 3,6 C 83 % 1021,1 hPa 0,0 l/m 1,9 km/h (1 Bft) NW 314 0 min 0,000 mm 0,0 UV-I 0 W/m 1,0 C 3,6 C 11,3 km/h (2 Bft)
18.03.2016 22:25 3,5 C 83 % 1021,1 hPa 0,0 l/m 1,0 km/h (0 Bft) W-NW 300 0 min 0,000 mm 0,0 UV-I 0 W/m 0,9 C 3,5 C 4,8 km/h (1 Bft)
18.03.2016 22:30 3,5 C 83 % 1021,1 hPa 0,0 l/m 1,3 km/h (1 Bft) W-NW 291 0 min 0,000 mm 0,0 UV-I 0 W/m 0,9 C 3,5 C 6,4 km/h (2 Bft)
18.03.2016 22:35 3,4 C 83 % 1021,1 hPa 0,0 l/m 1,1 km/h (1 Bft) W-NW 293 0 min 0,000 mm 0,0 UV-I 0 W/m 0,8 C 3,4 C 4,8 km/h (1 Bft)
18.03.2016 22:40 3,4 C 83 % 1021,1 hPa 0,0 l/m 2,1 km/h (1 Bft) W-NW 300 0 min 0,000 mm 0,0 UV-I 0 W/m 0,8 C 3,4 C 9,7 km/h (2 Bft)
18.03.2016 22:45 3,4 C 83 % 1021,1 hPa 0,0 l/m 0,4 km/h (0 Bft) W-NW 290 0 min 0,000 mm 0,0 UV-I 0 W/m 0,8 C 3,4 C 3,2 km/h (1 Bft)
18.03.2016 22:50 3,4 C 83 % 1021,1 hPa 0,0 l/m 0,9 km/h (0 Bft) W-NW 296 0 min 0,000 mm 0,0 UV-I 0 W/m 0,8 C 3,4 C 8,0 km/h (2 Bft)
18.03.2016 22:55 3,4 C 84 % 1021,1 hPa 0,0 l/m 0,2 km/h (0 Bft) W-NW 286 0 min 0,000 mm 0,0 UV-I 0 W/m 1,0 C 3,4 C 3,2 km/h (1 Bft)
18.03.2016 23:00 3,4 C 84 % 1021,2 hPa 0,0 l/m 0,0 km/h (0 Bft) W-NW 294 0 min 0,000 mm 0,0 UV-I 0 W/m 1,0 C 3,4 C 1,6 km/h (1 Bft)
18.03.2016 23:05 3,4 C 84 % 1021,3 hPa 0,0 l/m 0,0 km/h (0 Bft) NW 307 0 min 0,000 mm 0,0 UV-I 0 W/m 1,0 C 3,4 C 0,0 km/h (0 Bft)
18.03.2016 23:10 3,4 C 83 % 1021,4 hPa 0,0 l/m 0,0 km/h (0 Bft) N 9 0 min 0,000 mm 0,0 UV-I 0 W/m 0,8 C 3,4 C 0,0 km/h (0 Bft)
18.03.2016 23:15 3,5 C 83 % 1021,4 hPa 0,0 l/m 0,0 km/h (0 Bft) N-NW 327 0 min 0,000 mm 0,0 UV-I 0 W/m 0,9 C 3,5 C 1,6 km/h (1 Bft)
18.03.2016 23:20 3,5 C 83 % 1021,4 hPa 0,0 l/m 0,1 km/h (0 Bft) W-NW 290 0 min 0,000 mm 0,0 UV-I 0 W/m 0,9 C 3,5 C 1,6 km/h (1 Bft)
18.03.2016 23:25 3,5 C 83 % 1021,3 hPa 0,0 l/m 0,0 km/h (0 Bft) N 10 0 min 0,000 mm 0,0 UV-I 0 W/m 0,9 C 3,5 C 1,6 km/h (1 Bft)
18.03.2016 23:30 3,5 C 83 % 1021,4 hPa 0,0 l/m 0,0 km/h (0 Bft) NW 325 0 min 0,000 mm 0,0 UV-I 0 W/m 0,9 C 3,5 C 0,0 km/h (0 Bft)
18.03.2016 23:35 3,5 C 83 % 1021,3 hPa 0,0 l/m 0,0 km/h (0 Bft) NW 306 0 min 0,000 mm 0,0 UV-I 0 W/m 0,9 C 3,5 C 1,6 km/h (1 Bft)
18.03.2016 23:40 3,5 C 83 % 1021,3 hPa 0,0 l/m 0,1 km/h (0 Bft) NW 320 0 min 0,000 mm 0,0 UV-I 0 W/m 0,9 C 3,5 C 3,2 km/h (1 Bft)
18.03.2016 23:45 3,5 C 83 % 1021,3 hPa 0,0 l/m 0,1 km/h (0 Bft) NW 309 0 min 0,000 mm 0,0 UV-I 0 W/m 0,9 C 3,5 C 1,6 km/h (1 Bft)
18.03.2016 23:50 3,5 C 84 % 1021,2 hPa 0,0 l/m 0,3 km/h (0 Bft) NW 323 0 min 0,000 mm 0,0 UV-I 0 W/m 1,1 C 3,5 C 3,2 km/h (1 Bft)
18.03.2016 23:55 3,5 C 84 % 1021,1 hPa 0,0 l/m 0,2 km/h (0 Bft) NW 309 0 min 0,000 mm 0,0 UV-I 0 W/m 1,1 C 3,5 C 9,7 km/h (2 Bft)
_ Min-Zeit 06:30 12:10 15:55 - 00:00 - - - - - - 06:30 06:30 00:00
Minimum _ -2,7 C 40 % 1018,5 hPa - 0,0 km/h (0 Bft) - - - - - - -4,0 C -2,7 C 0,0 km/h (0 Bft)
_ Max-Zeit 14:35 06:15 00:00 08:10 16:10 - - 07:45 13:05 12:05 12:50 17:25 14:35 14:15
Maximum _ 15,4 C 93 % 1024,3 hPa 0,2 l/m 10,1 km/h
W (2 Bft)
- - 5 min 0,330 mm 2,6 UV-I 627 W/m 3,1 C 15,3 C 20,9 km/h
W-NW (4 Bft)
Durchschnitt _ 5,2 C 73 % 1021,0 hPa #0,2 l/m 1,7 km/h (1 Bft) W - #10:30 h #2,337 mm 1,6 UV-I 358 W/m -0,1 C 5,1 C 6,3 km/h (2 Bft)